Tracking 35274 objects as of 11-Sep-2026
HD Live streaming from Space Station
objects crossing your sky now

COSMOS 2491 DEB

Track COSMOS 2491 DEB now!
10-day predictions


NORAD ID: 57555
Int'l Code: 2013-076AS
Launch date: December 25, 2013
Source: Commonwealth of Independent States (former USSR) (CIS)
Launch site: PLESETSK MISSILE AND SPACE COMPLEX (PKMTR)

Note: This is SATELLITE DEBRIS
Your satellite tracking list
Your tracking list is empty




NASA's NSSDC Master Catalog

Two Line Element Set (TLE):
1 57555U 13076AS  24171.00687869  .00001095  00000-0  78167-2 0  9999
2 57555  82.4694 266.6010 0071719 158.3105 202.1039 12.42352922 51107
Source of the keplerian elements: AFSPC